Location: Aalen
(48.8330°N, 10.1000°E)
Time: 01:18:28
(UTC+02:00)

Transit 4A - Pass Details

Date: 01 August 2021
Orbit: 870 x 974 km, 66.8° (Epoch: 26 September)

Event Time Altitude Azimuth Distance (km) Brightness Sun altitude
Rises 07:42:20 0° 324° (NW) 3,469 10.6 16.1°
Reaches altitude 10° 07:45:20 10° 338° (NNW) 2,532 10.1 16.5°
Maximum altitude 07:49:58 24° 31° (NNE) 1,765 10.1 17.3°
Drops below altitude 10° 07:54:38 10° 83° (E) 2,556 12.9 18.1°
Sets 07:57:41 0° 98° (E) 3,510 12.4 18.6°
